Regional Weather Roundup
Issued by NWS Charleston, WV

Home | Current Version | Previous Version | Text Only | Print | Product List | Glossary Off
Versions: 1 2 3 4 5 6 7 8 9 10 11 12 13 14 15 16 17 18 19 20 21 22 23 24 25 26 27 28 29 30 31 32 33 34 35 36 37 38 39 40 41 42 43 44 45 46 47 48 49 50

000
ASUS41 KRLX 041610
RWRRLX
West Virginia Regional Weather Roundup
National Weather Service Charleston WV
1200 PM EDT FRI SEP 04 2015

Note: "fair" indicates few or no clouds below 12,000 feet with no
significant weather and/or obstructions to visibility.

WVZ003-041700-
Northern Panhandle of West Virginia

CITY           SKY/WX    TMP DP  RH WIND       PRES   REMARKS
WHEELING       PTSUNNY   75  64  68 CALM      30.12R
$$

WVZ009-041700-
Northwest West Virginia

CITY           SKY/WX    TMP DP  RH WIND       PRES   REMARKS
PARKERSBURG    CLOUDY    78  65  63 S3        30.13R
$$

WVZ006-041700-
Western West Virginia

CITY           SKY/WX    TMP DP  RH WIND       PRES   REMARKS
HUNTINGTON     SUNNY     83  69  62 E6        30.08S
$$

WVZ015-041700-
West Central West Virginia

CITY           SKY/WX    TMP DP  RH WIND       PRES   REMARKS
CHARLESTON     MOSUNNY   82  68  62 N6        30.10S
$$

WVZ022-031-041700-
North Central West Virginia

CITY           SKY/WX    TMP DP  RH WIND       PRES   REMARKS
CLARKSBURG     SUNNY     81  66  60 VRB5      30.12R
MORGANTOWN     SUNNY     84  65  52 NW5       30.12S
$$

WVZ025-035-042-045-041700-
Southern West Virginia

CITY           SKY/WX    TMP DP  RH WIND       PRES   REMARKS
BECKLEY        SUNNY     78  64  61 N8        30.17R
LOGAN            N/A     82  68  61 NE6       30.13R
BLUEFIELD      MOSUNNY   81  63  54 N10       30.19R
LEWISBURG      SUNNY     79  67  67 CALM      30.16R
$$

WVZ047-041700-
Northern Mountains of West Virginia

CITY           SKY/WX    TMP DP  RH WIND       PRES   REMARKS
ELKINS         SUNNY     77  66  68 CALM      30.16S
$$

WVZ052-041700-
Eastern Panhandle of West Virginia

CITY           SKY/WX    TMP DP  RH WIND       PRES   REMARKS
MARTINSBURG    SUNNY     87  67  51 VRB7      30.06S
PETERSBURG     SUNNY     82  70  66 S3        30.10R THUNDER
$$



USA.gov is the U.S. government's official web portal to all federal, state and local government web resources and services.